INSAT 2E                
1 25666U 99016A__ 03091.93349171 -.00000171  00000-0  00000+0 0  6592
2 25666   0.0069 192.9802 0006160 228.7881 187.1342  1.00272092 14769
FENGYUN 1C              
1 25730U 99025A__ 03092.95737053  .00000059  00000-0  55753-4 0  8212
2 25730  98.6315 115.7232 0013680 238.0308 121.9534 14.11739061200756
QUIKSCAT                
1 25789U 99034A__ 03092.91127604  .00000102  00000-0  60430-4 0  7763
2 25789  98.6353 279.3928 0001412  50.4249 309.7057 14.26593895197166
INSAT 3B                
1 26108U 00016B__ 03091.93368233 -.00000171  00000-0  00000+0 0  4167
2 26108   0.0281 118.2372 0003748 248.2977 242.3910  1.00271548 11107
GOES 11                 
1 26352U 00022A__ 03093.42537899 -.00000032  00000-0  10000-3 0   940
2 26352   0.2492 100.0158 0002980 225.0055 265.4197  1.00270400 10672
FENGYUN 2B              
1 26382U 00032A__ 03093.32101413 -.00000331  00000-0  00000+0 0  8228
2 26382   0.4659 289.5106 0002087 216.6658 265.0463  1.00272549 10152
NOAA 16                 
1 26536U 00055A__ 03093.09304027  .00000117  00000-0  88154-4 0  2758
2 26536  98.9084  41.0717 0010480 178.5660 181.5535 14.11930240130296
GOES 12                 
1 26871U 01031A__ 03093.37876486 -.00000235  00000-0  10000-3 0  8997
2 26871   0.2184 275.2610 0001095  73.8691 257.5715  1.00352701  6279
METEOR-3M               
1 27001U 01056A__ 03092.95786217  .00000139  00000-0  21472-3 0  3267
2 27001  99.5852 330.7529 0014452 138.2095 222.0156 13.68201246 65409
INSAT 3C                
1 27298U 02002A__ 03091.83981037 -.00000084  00000-0  00000+0 0  2461
2 27298   0.0430 140.6859 0004779 263.2944 162.0696  1.00272213  4368
FENGYUN 1D              
1 27431U 02024B__ 03093.40331875 -.00000047  00000-0 -24595-5 0  2526
2 27431  98.7621 141.1929 0015524   3.8606 356.2682 14.09181235 45543
NOAA 17                 
1 27453U 02032A__ 03093.43191277  .00000281  00000-0  14330-3 0  3604
2 27453  98.7477 164.3945 0011196 227.0348 132.9893 14.23320891 40205
MSG-1                   
1 27509U 02040B__ 03092.06684608 -.00000094  00000-0  00000+0 0  1615
2 27509   1.5776 303.4938 0002385 115.7660 144.3478  1.00273168  2253
METSAT 1                
1 27525U 02043A__ 03089.66144079 -.00000093  00000-0  00000+0 0  1205
2 27525   0.0412 246.9568 0004537  23.9272 228.8532  1.00272629  2038
